Orbital Elements at Epoch 2459200.5 (2020-Dec-17.0) TDB
Reference: JPL 16 (heliocentric ecliptic J2000)
Element | Value | Uncertainty (1-sigma) | Units |
e | .2251508098915979 | 4.8925e-08 | |
a | 2.695016277562216 | 2.0212e-08 | au |
q | 2.088231179998044 | 1.3164e-07 | au |
i | 14.81747512776906 | 5.9243e-06 | deg |
node | 64.97126362666268 | 2.4627e-05 | deg |
peri | 14.62976328801215 | 2.8479e-05 | deg |
M | 163.524236556294 | 1.5055e-05 | deg |
tp | 2458466.459292312056 (2018-Dec-13.95929231) | 6.4256e-05 | TDB |
period | 1615.9968719786 4.42 | 1.818e-05 4.977e-08 | d yr |
n | .2227727084392323 | 2.5062e-09 | deg/d |
Q | 3.301801375126389 | 2.4763e-08 | au |
|
| | Orbit Determination Parameters
Additional Information
|